User: anonymous
Location: Nebula Knoll Observatory
(43.6666°N, 71.0000°W)
Time: 05:49:30
(UTC-04:00)
Language:

Cosmos 1782 - Orbit

View from above orbital plane
View from above orbital plane
View from above satellite
View from above satellite

Ground track
Ground track

The orbit data is extracted from the following two-line orbital elements,

1 16986U 86074A   14211.70623570  .00001613  00000-0  11790-3 0  8085
2 16986 082.5061 063.2007 0011207 339.1443 020.9324 15.02948518512517
Epoch (UTC): 30 July 2014 16:56:58
Eccentricity: 0.0011207
inclination: 82.5061°
perigee height: 550 km
apogee height: 565 km
right ascension of ascending node: 63.2007°
argument of perigee: 339.1443°
revolutions per day: 15.02948518
mean anomaly at epoch: 20.9324°
orbit number at epoch: 51251

The dashed part of the orbit path shows where the satellite is in the earth's shadow,  

DLR